Location: Nitra
(0.0000°N, 18.0833°E)
Time: 06:51:53
(UTC+02:00)

JUGNU - Visible Passes

Search period start: 08 June 2023 00:00
Search period end: 18 June 2023 00:00
Orbit: 835 x 863 km, 20.0° (Epoch: 07 June)

Date Brightness Start Highest point End Pass type
(mag) Time Alt. Az. Time Alt. Az. Time Alt. Az.
08 Jun ? 04:12:24 15° N 04:14:04 17° NNE 04:17:46 10° NE visible
08 Jun ? 05:58:01 10° NW 06:03:26 40° NNE 06:08:54 10° E visible
08 Jun ? 20:33:47 10° W 20:39:24 42° NNW 20:42:30 24° NE visible
09 Jun ? 03:58:28 18° NNE 03:58:40 18° NNE 04:02:38 10° ENE visible
09 Jun ? 05:42:26 10° NW 05:47:58 44° NNE 05:53:33 10° E visible
09 Jun ? 20:18:26 10° W 20:23:56 38° NNW 20:28:46 13° NE visible
09 Jun ? 22:09:41 10° NW 22:10:38 13° NW 22:10:38 13° NW visible
10 Jun ? 03:44:38 19° NE 03:44:38 19° NE 03:47:27 10° ENE visible
10 Jun ? 05:26:53 10° NW 05:32:31 49° NNE 05:38:10 10° E visible
10 Jun ? 20:03:06 10° W 20:08:28 34° NNW 20:13:48 10° NE visible
10 Jun ? 21:54:33 10° NW 21:56:49 15° NNW 21:56:49 15° NNW visible
11 Jun ? 03:30:52 15° NE 03:30:52 15° NE 03:32:16 10° ENE visible
11 Jun ? 05:12:45 18° NW 05:17:03 56° NNE 05:22:47 10° E visible
11 Jun ? 19:47:47 10° W 19:53:01 31° NNW 19:58:13 10° NE visible
11 Jun ? 21:39:26 10° NW 21:42:34 14° NNW 21:42:53 14° N visible
12 Jun ? 04:59:02 33° NW 05:01:35 63° NNE 05:07:22 10° ESE visible
12 Jun ? 19:32:30 10° WNW 19:37:34 28° NNW 19:42:37 10° NE visible
12 Jun ? 21:24:20 10° NW 21:27:10 13° N 21:28:51 12° N visible
13 Jun ? 04:45:21 62° NNW 04:46:08 70° NNE 04:51:57 10° ESE visible
13 Jun ? 19:17:13 10° WNW 19:22:06 26° NNW 19:26:59 10° NE visible
13 Jun ? 21:09:16 10° NW 21:11:48 13° N 21:14:19 10° NNE visible
14 Jun ? 04:31:39 62° E 04:31:39 62° E 04:36:31 10° ESE visible
14 Jun ? 06:14:18 10° W 06:19:41 37° SSW 06:25:04 10° SE visible
14 Jun ? 20:54:13 10° NNW 20:56:25 12° N 20:58:37 10° NNE visible
15 Jun ? 04:17:54 33° ESE 04:17:54 33° ESE 04:21:03 10° ESE visible
15 Jun ? 05:59:46 13° W 06:04:14 34° SSW 06:09:29 10° SE visible
15 Jun ? 20:39:11 10° NNW 20:41:03 11° N 20:42:55 10° N visible
16 Jun ? 04:04:06 18° ESE 04:04:06 18° ESE 04:05:34 10° ESE visible
16 Jun ? 05:45:58 20° WSW 05:48:48 30° SSW 05:53:53 10° SE visible
16 Jun ? 20:24:11 10° NNW 20:25:41 11° N 20:27:12 10° N visible
17 Jun ? 05:32:05 25° SW 05:33:21 28° SSW 05:38:16 10° SE visible
17 Jun ? 20:09:12 10° NNW 20:10:20 10° N 20:11:27 10° N visible
